This is the latest recevied weather packets stored in our database for station/object KK4WXG. If no packets are shown the sender has not sent any weather packets the latest 1 day(s).
| Time | Temp. | Humidity | Pressure | Rain* | Wind** | Luminosity | Snow |
|---|---|---|---|---|---|---|---|
| 1777968837 | 12.78° C | 78% | 1009.8 hPa | 0 mm | 0.89 m/s, 123° | 0 W/m² | - |
| 1777968533 | 12.78° C | 77% | 1010.2 hPa | 0 mm | 0.89 m/s, 132° | 0 W/m² | - |
| 1777968229 | 13.33° C | 77% | 1010.1 hPa | 0 mm | 0 m/s | 0 W/m² | - |
| 1777967925 | 13.33° C | 75% | 1009.9 hPa | 0 mm | 0 m/s | 0 W/m² | - |
| 1777967622 | 13.89° C | 74% | 1009.8 hPa | 0 mm | 0.45 m/s, 157° | 0 W/m² | - |
| 1777967319 | 13.89° C | 74% | 1009.9 hPa | 0 mm | 0 m/s | 0 W/m² | - |
| 1777967016 | 13.89° C | 74% | 1009.9 hPa | 0 mm | 0.89 m/s, 219° | 0 W/m² | - |
| 1777966714 | 13.89° C | 74% | 1009.7 hPa | 0 mm | 0.45 m/s, 197° | 0 W/m² | - |
| 1777966412 | 13.89° C | 74% | 1009.7 hPa | 0 mm | 1.34 m/s, 206° | 0 W/m² | - |
| 1777966108 | 14.44° C | 73% | 1009.8 hPa | 0 mm | 1.79 m/s, 233° | 0 W/m² | - |
| 1777965804 | 13.89° C | 73% | 1009.9 hPa | 0 mm | 0.89 m/s, 211° | 0 W/m² | - |
| 1777965500 | 13.89° C | 74% | 1010 hPa | 0 mm | 0 m/s | 0 W/m² | - |
| 1777965197 | 13.89° C | 74% | 1009.7 hPa | 0 mm | 0.45 m/s, 164° | 0 W/m² | - |
| 1777964895 | 13.89° C | 74% | 1009.9 hPa | 0 mm | 0.89 m/s, 192° | 0 W/m² | - |
| 1777964591 | 13.89° C | 74% | 1009.9 hPa | 0 mm | 0.89 m/s, 169° | 0 W/m² | - |
| 1777964287 | 13.89° C | 74% | 1009.8 hPa | 0 mm | 0.45 m/s, 222° | 0 W/m² | - |
| 1777963984 | 13.89° C | 74% | 1009.8 hPa | 0 mm | 0 m/s | 0 W/m² | - |
| 1777963681 | 13.89° C | 73% | 1009.7 hPa | 0 mm | 0 m/s | 0 W/m² | - |
| 1777963378 | 13.89° C | 73% | 1009.9 hPa | 0 mm | 0 m/s | 0 W/m² | - |
| 1777963076 | 14.44° C | 73% | 1009.8 hPa | 0 mm | 0 m/s | 0 W/m² | - |
| 1777962772 | 14.44° C | 73% | 1010.1 hPa | 0 mm | 0.89 m/s, 179° | 0 W/m² | - |
| 1777962468 | 14.44° C | 73% | 1010 hPa | 0 mm | 0.45 m/s, 232° | 0 W/m² | - |
| 1777962166 | 13.89° C | 73% | 1009.8 hPa | 0 mm | 0.89 m/s, 192° | 0 W/m² | - |
| 1777961863 | 13.89° C | 73% | 1009.9 hPa | 0 mm | 0.89 m/s, 184° | 0 W/m² | - |
| 1777961561 | 13.89° C | 73% | 1009.8 hPa | 0 mm | 0.45 m/s, 183° | 0 W/m² | - |
* Rain latest hour (hover to see other rain measurements)
** Current wind speed in m/s (hover to see current wind gust speed)